Kenosha, WI

10:16 AM CDT on September 17, 2019 (GMT -0500)
Kenosha Regional

Weather History for KENW - August, 2019

Change the Weather History Date:

Monday, August 19, 2019

  Actual Average Record
Temperature  
Mean Temperature 71 °F -  
Max Temperature 82 °F 77 °F 99 °F (1983)
Min Temperature 61 °F 60 °F 42 °F (1985)
Cooling Degree Days 6    
Growing Degree Days 21 (Base 50)    
Moisture  
Dew Point 65 °F    
Average Humidity 92    
Maximum Humidity 100    
Minimum Humidity 65    
Precipitation  
Precipitation 0.00 in - - ()
Sea Level Pressure  
Sea Level Pressure 29.98 in    
Wind  
Wind Speed 3 mph (WSW)    
Max Wind Speed 8 mph    
Max Gust Speed -    
Visibility 6 miles    
Events Fog    
Averages and records for this station are not official NWS values.
T = Trace of Precipitation, MM = Missing Value Source: NWS Daily Summary

Daily Weather History Graph

Daily Weather History Graph

Search for Another Location

Airport or City:

Astronomy

Aug. 19, 2019 Rise Set
Actual Time 6:02 AM CDT 7:47 PM CDT
Civil Twilight 5:32 AM CDT 8:17 PM CDT
Nautical Twilight 4:55 AM CDT 8:53 PM CDT
Astronomical Twilight 4:16 AM CDT 9:33 PM CDT
Moon 10:03 PM CDT (8/19) 9:47 AM CDT (8/19)
Length of Visible Light 14h 45m
Length of Day
13h 44m
Waning Gibbous, 85% of the Moon is Illuminated
Aug 19
Waning Gibbous
Aug 23
Last Quarter
Aug 30
New
Sep 5
First Quarter
Sep 13
Full

Hourly Weather History & Observations

Time (CDT) Temp. Heat Index Dew Point Humidity Pressure Visibility Wind Dir Wind Speed Gust Speed Precip Events Conditions
12:53 AM 66.0 °F - 64.9 °F 96% 29.93 in 10.0 mi West 3.5 mph - N/A   Clear
1:53 AM 64.9 °F - 64.0 °F 97% 29.93 in 9.0 mi West 3.5 mph - N/A   Clear
2:03 AM 64.0 °F - 64.0 °F 100% 29.94 in 1.8 mi West 4.6 mph - N/A   Clear
2:14 AM 64.0 °F - 64.0 °F 100% 29.94 in 3.0 mi West 4.6 mph - N/A   Clear
2:33 AM 63.0 °F - 63.0 °F 100% 29.94 in 1.8 mi West 4.6 mph - N/A   Clear
2:42 AM 64.0 °F - 64.0 °F 100% 29.94 in 3.0 mi West 3.5 mph - N/A   Clear
2:53 AM 63.0 °F - 63.0 °F 100% 29.94 in 3.0 mi WNW 3.5 mph - N/A   Clear
2:55 AM 63.0 °F - 63.0 °F 100% 29.95 in 1.5 mi WNW 3.5 mph - N/A   Clear
3:04 AM 62.1 °F - 62.1 °F 100% 29.95 in 0.5 mi Calm Calm - N/A Fog Fog
3:13 AM 64.0 °F - 63.0 °F 96% 29.94 in 2.5 mi Calm Calm - N/A   Clear
3:22 AM 62.1 °F - 62.1 °F 100% 29.94 in 0.8 mi Calm Calm - N/A   Clear
3:30 AM 61.0 °F - 61.0 °F 100% 29.94 in 2.0 mi Calm Calm - N/A   Clear
3:41 AM 62.1 °F - 62.1 °F 100% 29.95 in 1.2 mi Calm Calm - N/A   Clear
3:50 AM 62.6 °F - 62.6 °F 100% 29.95 in 0.2 mi Calm Calm - N/A Fog Fog
3:53 AM 61.0 °F - 61.0 °F 100% 29.94 in 0.2 mi Calm Calm - N/A Fog Fog
4:06 AM 63.0 °F - 63.0 °F 100% 29.95 in 1.2 mi WSW 3.5 mph - N/A   Clear
4:10 AM 63.0 °F - 63.0 °F 100% 29.95 in 4.0 mi Calm Calm - N/A   Clear
4:19 AM 64.0 °F - 64.0 °F 100% 29.96 in 2.5 mi Calm Calm - N/A   Clear
4:28 AM 64.0 °F - 64.0 °F 100% 29.96 in 7.0 mi Calm Calm - N/A   Clear
4:49 AM 64.4 °F - 64.4 °F 100% 29.96 in 1.8 mi Calm Calm - N/A   Partly Cloudy
4:53 AM 64.0 °F - 64.0 °F 100% 29.96 in 0.8 mi Calm Calm - N/A   Scattered Clouds
5:09 AM 63.0 °F - 63.0 °F 100% 29.97 in 2.0 mi West 3.5 mph - N/A   Partly Cloudy
5:19 AM 63.0 °F - 63.0 °F 100% 29.97 in 0.8 mi West 3.5 mph - N/A   Clear
5:33 AM 64.0 °F - 64.0 °F 100% 29.97 in 2.5 mi Calm Calm - N/A   Clear
5:40 AM 64.0 °F - 64.0 °F 100% 29.98 in 9.0 mi WSW 3.5 mph - N/A   Clear
5:50 AM 64.4 °F - 64.4 °F 100% 29.98 in 1.5 mi Calm Calm - N/A   Scattered Clouds
5:53 AM 64.0 °F - 64.0 °F 100% 29.98 in 1.0 mi West 3.5 mph - N/A   Scattered Clouds
6:05 AM 64.0 °F - 64.0 °F 100% 29.99 in 3.0 mi West 3.5 mph - N/A   Scattered Clouds
6:13 AM 64.0 °F - 64.0 °F 100% 30.00 in 1.8 mi West 3.5 mph - N/A   Scattered Clouds
6:28 AM 63.0 °F - 63.0 °F 100% 30.00 in 3.0 mi Calm Calm - N/A   Mostly Cloudy
6:53 AM 66.0 °F - 66.0 °F 100% 30.00 in 9.0 mi West 3.5 mph - N/A   Overcast
7:53 AM 68.0 °F - 66.0 °F 93% 30.02 in 10.0 mi North 3.5 mph - N/A   Overcast
8:53 AM 70.0 °F - 66.0 °F 87% 30.02 in 10.0 mi Calm Calm - N/A   Overcast
9:53 AM 73.0 °F - 66.0 °F 79% 30.04 in 10.0 mi ENE 4.6 mph - N/A   Overcast
10:53 AM 75.9 °F - 66.0 °F 71% 30.04 in 10.0 mi ESE 6.9 mph - N/A   Mostly Cloudy
11:53 AM 78.1 °F - 68.0 °F 71% 30.04 in 10.0 mi East 5.8 mph - N/A   Overcast
12:53 PM 78.1 °F - 68.0 °F 71% 30.04 in 10.0 mi East 5.8 mph - N/A   Overcast
1:53 PM 79.0 °F - 68.0 °F 69% 30.03 in 10.0 mi East 6.9 mph - N/A   Scattered Clouds
2:14 PM 80.1 °F 82.9 °F 69.1 °F 69% 30.04 in 10.0 mi East 5.8 mph - N/A   Mostly Cloudy
2:53 PM 80.1 °F 82.7 °F 68.0 °F 67% 30.02 in 10.0 mi East 8.1 mph - N/A   Scattered Clouds
2:55 PM 81.0 °F 83.8 °F 68.0 °F 65% 30.03 in 10.0 mi Variable 5.8 mph - N/A   Mostly Cloudy
3:53 PM 81.0 °F 84.4 °F 70.0 °F 69% 30.01 in 10.0 mi Variable 5.8 mph - N/A   Scattered Clouds
5:53 PM 80.1 °F 83.6 °F 71.1 °F 74% 30.00 in 10.0 mi ESE 5.8 mph - N/A   Clear
6:53 PM 78.1 °F - 70.0 °F 76% 30.00 in 10.0 mi ESE 6.9 mph - N/A   Clear
7:53 PM 75.0 °F - 70.0 °F 84% 30.00 in 10.0 mi ENE 3.5 mph - N/A   Partly Cloudy
8:53 PM 73.0 °F - 69.1 °F 87% 30.01 in 10.0 mi Calm Calm - N/A   Clear
9:53 PM 72.0 °F - 70.0 °F 93% 30.02 in 10.0 mi South 3.5 mph - N/A   Mostly Cloudy
10:53 PM 73.9 °F - 71.1 °F 91% 30.02 in 10.0 mi South 3.5 mph - N/A   Scattered Clouds
11:53 PM 72.0 °F - 70.0 °F 93% 30.01 in 10.0 mi Calm Calm - N/A   Mostly Cloudy